sat.trackr.live / text

‹ back to catalog

STARLINK-36224

NORAD 67203 · 2025-304M

PAYLOAD ACTIVE UNKNOWN

§ Identity

Operator
Country
US
Launch date
2025-12-17
Launch site
AFWTR
Launch vehicle
Mass (kg)
RCS (m²)

Purposes: comms

External: N2YO · Heavens-Above · Gunter

§ Orbital elements

Epoch: 2026-09-20T02:13:19.331904Z

Period
96.11 min
Inclination
70.0017°
Eccentricity
0.0002834
Mean motion
14.98341302 rev/d
Perigee alt
570.1 km
Apogee alt
574.0 km
Semi-major
6,950.2 km
B*
2.7051e-4
RAAN
44.3205°
Arg perigee
270.3377°
Mean anomaly
89.7457°
Rev number
4,300

§ Raw data

STARLINK-362241 67203U 25304M   26263.09258486  .00003137  00000+0  27051-3 0  99942 67203  70.0017  44.3205 0002834 270.3377  89.7457 14.98341302 43001

JSON: /api/v1/satellites/67203 · /tle

For live sub-satellite position, see the globe view (requires WebGL).

§ Visibility from observer

Set your observer location to see the next 7 days of passes ≥ 10°. The values pass through the URL so the page stays shareable.

No JS? Fill the form by hand. The geolocation button needs JavaScript.